Helicity
77 90 98 116 139 142 139 145 147 148 160 171 168 164 169 168 199 192 194 200 224 242 207 183 169 194 178 164 147 142 133 124 116 89 96 81 78 79 69 65 66 65 77
77 104 102 113 119 125 127 125 126 131 166 176 197 175 170 175 151 167 206 203 186 227 180 192 181 221 186 172 161 169 145 122 138 118 92 121 137 109 71 73 85 84 98
293 61 126 90 101 112 120 127 121 137 156 145 156 170 160 144 150 156 168 191 178 174 182 192 186 166 165 152 146 187 176 155 147 163 138 119 91 98 94 103 159 190 227
334 285 106 145 114 112 124 147 144 134 126 115 118 124 138 141 157 146 138 150 163 169 178 172 175 182 170 180 185 162 172 179 181 165 195 165 133 110 101 133 152 163 192
225 263 140 127 188 214 188 154 145 160 153 163 138 140 142 134 129 127 123 121 140 158 179 191 180 178 177 184 188 199 218 199 179 173 162 153 134 128 123 123 137 158 159
212 216 176 186 221 238 238 216 204 200 200 178 174 127 92 84 105 106 112 119 120 120 155 163 170 171 171 179 187 195 189 188 194 176 167 157 157 157 152 139 116 84 111
170 230 174 165 212 235 223 233 207 202 201 200 182 170 141 135 113 124 126 122 114 129 142 148 158 155 161 173 169 168 173 169 170 178 170 170 175 156 153 134 118 110 88
192 220 297 158 148 203 211 200 212 203 198 206 207 173 169 136 127 128 125 129 133 132 136 153 148 148 157 164 169 171 163 149 166 171 163 158 170 170 166 152 132 119 101
141 178 221 101 93 178 209 197 197 193 187 190 191 202 163 152 130 127 123 112 111 97 120 128 139 140 147 153 162 160 162 171 170 167 166 156 155 156 151 146 129 108 117
75 82 113 116 125 169 215 208 192 185 180 177 176 169 177 168 143 133 132 124 114 120 126 120 122 125 125 132 145 149 146 148 151 147 152 152 140 135 130 132 132 127 117
52 46 34 75 147 187 219 238 219 195 185 172 163 165 161 163 149 143 136 111 109 106 115 115 119 121 121 117 120 135 123 118 129 135 131 130 128 132 136 136 130 129 126
27 40 62 82 123 198 217 218 206 192 173 153 157 161 161 159 158 138 119 97 111 94 98 105 105 106 111 113 119 123 136 140 142 142 146 140 137 134 119 125 126 127 124
57 58 51 89 122 180 214 208 191 183 163 151 151 151 144 139 126 117 111 103 95 93 97 89 103 114 105 108 110 110 114 116 113 113 116 117 122 124 126 124 126 126 127
21 15 31 34 58 97 132 145 163 158 136 127 139 138 132 121 102 93 100 95 87 84 78 80 88 95 97 98 83 77 85 88 93 90 88 94 100 106 111 115 116 115 121
54 36 38 36 21 13 30 61 87 67 75 75 68 65 53 76 87 87 84 85 76 63 61 76 80 82 79 66 69 99 98 94 93 81 79 80 73 58 79 100 105 119 118
45 57 46 61 54 36 25 25 36 45 46 60 65 50 31 32 64 86 93 102 97 94 97 87 83 83 81 74 81 81 76 76 82 89 85 79 86 85 80 85 89 93 109
101 88 53 48 30 30 18 17 16 17 27 41 41 45 56 74 88 96 104 106 102 112 87 78 77 68 73 64 73 85 102 109 110 110 112 115 114 136 126 124 124 148 147
68 72 41 21 35 41 34 18 21 25 34 34 44 42 47 69 90 98 108 126 133 115 108 89 73 67 55 31 47 57 76 81 83 89 99 109 120 120 131 133 133 129 121
46 38 50 61 65 91 104 40 26 27 40 52 51 64 60 58 77 89 100 128 144 132 125 127 99 88 68 38 40 54 62 64 74 81 88 94 94 89 98 128 119 102 96
37 42 40 47 61 83 122 109 61 41 45 54 57 46 67 85 75 84 101 140 165 146 133 115 106 59 70 47 48 54 59 72 78 78 80 94 99 111 118 115 94 92 94
47 42 47 47 53 70 90 89 73 59 61 74 62 61 41 74 109 104 122 130 132 146 140 126 115 92 73 61 44 47 56 55 68 69 76 86 104 105 104 109 93 87 89
38 40 40 44 54 63 70 67 72 73 77 82 78 72 66 50 99 113 109 132 154 166 161 155 143 119 84 32 27 31 35 34 56 52 53 66 93 92 100 106 92 95 106
33 35 35 37 42 55 67 64 60 78 80 86 69 66 75 86 60 140 128 132 157 158 164 182 163 136 105 81 26 21 29 48 62 46 44 92 98 112 109 105 128 137 101
37 34 35 34 44 53 50 54 56 65 57 58 53 62 78 90 94 99 166 141 153 158 168 187 166 141 111 110 77 58 84 84 95 87 80 69 91 104 104 100 93 80 72
45 45 40 47 45 44 49 52 58 59 51 51 58 71 90 97 97 93 162 180 152 150 179 196 196 174 154 122 54 91 109 91 70 84 92 94 92 96 99 98 95 84 69
51 54 48 42 46 56 54 61 59 54 49 52 57 68 86 105 110 114 114 45 43 19 24 52 154 161 109 53 67 88 72 66 74 99 90 87 87 84 86 97 102 82 96
Wind_Speed
43 37 38 40 39 37 37 40 40 39 37 37 35 36 36 32 33 32 34 37 39 40 42 39 40 40 38 37 39 40 42 45 50 51 50 50 45 46 50 50 51 53 49
41 43 40 40 44 43 40 39 40 41 44 42 41 39 37 37 35 33 34 37 37 38 38 40 41 40 38 38 39 41 43 44 46 49 49 51 45 42 43 45 46 47 48
51 47 45 47 45 47 44 40 39 40 40 41 40 38 37 39 40 38 39 40 37 38 38 39 41 40 38 40 41 42 43 46 46 46 46 49 47 45 41 40 38 40 40
58 53 47 47 50 48 44 40 39 39 39 40 41 44 47 44 42 41 39 40 38 38 38 39 41 41 41 43 44 44 45 46 49 46 47 46 46 46 47 43 42 44 46
59 65 55 47 45 45 43 42 41 39 40 41 41 42 40 40 40 40 40 40 39 39 41 40 42 43 44 44 45 47 48 47 47 49 50 48 48 48 51 56 54 51 51
56 61 59 44 43 43 42 43 42 42 41 40 40 39 40 41 41 42 41 41 41 39 41 42 43 44 45 46 47 49 47 48 48 48 49 49 51 53 54 57 59 62 58
53 54 53 45 43 45 47 45 42 44 42 41 41 40 40 41 41 43 43 43 43 42 43 43 45 45 47 47 48 49 49 49 50 50 51 51 52 53 55 59 61 61 59
50 49 49 39 42 44 42 45 46 44 41 41 43 43 43 42 43 43 44 44 44 44 44 45 46 46 47 48 49 50 50 50 52 52 53 53 55 54 54 57 61 66 60
47 46 44 39 39 42 44 41 40 43 43 42 42 43 44 45 45 45 45 45 45 46 46 47 48 48 49 50 51 52 52 53 54 55 54 54 56 56 56 56 58 61 69
44 43 43 41 37 36 38 39 40 40 39 42 45 46 46 46 46 47 48 48 48 48 49 49 50 50 51 51 52 54 53 54 56 56 56 57 57 58 57 58 59 61 66
43 41 38 36 34 31 34 38 41 42 44 43 44 45 48 49 49 49 49 50 49 50 50 51 51 52 52 53 54 55 56 57 58 59 60 61 60 62 62 61 61 64 67
41 39 37 34 30 31 35 39 42 46 49 47 48 49 49 48 49 51 51 50 51 51 51 52 52 53 53 54 55 57 58 60 62 62 63 64 63 63 63 65 66 68 69
44 43 40 38 35 33 35 39 43 48 49 49 51 53 55 54 55 54 52 50 50 51 52 52 53 53 54 55 55 56 58 60 61 63 64 65 65 66 66 68 68 70 72
46 45 45 44 43 43 44 45 48 49 51 52 54 58 59 61 60 58 55 54 53 53 53 53 53 54 54 56 56 57 58 59 61 62 63 64 66 67 68 70 70 71 74
51 49 50 51 50 50 52 53 54 54 55 58 61 65 65 63 62 63 60 58 57 57 56 56 57 57 57 57 55 58 61 63 65 65 65 66 65 66 68 70 72 74 78
54 54 57 60 60 57 58 57 59 60 59 62 65 65 65 64 63 61 60 60 58 57 56 57 58 58 57 57 59 62 64 66 68 69 68 67 68 69 70 71 73 73 77
54 59 64 67 68 67 64 63 62 61 63 66 67 67 66 66 64 62 61 62 61 59 59 58 56 58 56 57 58 60 63 66 68 70 71 70 68 69 70 72 73 74 76
62 68 70 70 71 72 70 65 65 66 67 68 68 67 68 69 65 63 64 62 60 60 60 59 58 58 56 56 58 60 62 65 66 66 67 68 69 69 73 73 74 74 76
66 65 64 68 74 75 74 72 71 69 71 73 72 69 67 68 66 66 65 63 61 61 61 60 59 58 59 56 58 60 61 65 65 64 65 66 68 69 70 71 74 76 74
64 65 67 67 68 72 75 79 78 77 78 76 75 72 69 68 68 67 66 62 60 61 58 59 57 57 59 56 57 59 61 65 65 63 63 65 65 67 66 68 72 75 72
67 68 67 66 67 70 72 77 81 86 81 81 79 78 75 73 71 68 65 64 62 60 60 59 57 57 56 57 59 59 60 62 63 64 64 62 65 66 66 67 67 71 71
67 67 68 67 68 70 70 74 76 78 83 83 81 80 78 75 73 72 69 67 64 64 63 62 60 58 56 57 57 58 58 59 59 62 62 63 63 63 64 64 64 67 69
67 66 67 68 67 69 69 74 73 74 75 77 83 84 82 81 77 74 73 71 68 69 68 66 66 64 59 57 57 56 57 58 60 57 58 59 59 58 58 58 60 61 63
68 67 68 68 71 71 71 73 75 74 76 79 79 79 81 81 82 73 70 71 71 71 70 70 69 66 63 56 55 56 55 54 54 54 56 54 53 52 52 54 56 57 59
66 67 68 72 73 72 74 74 75 75 77 77 75 74 73 73 75 73 68 69 70 69 70 68 65 63 61 56 53 50 51 50 51 49 49 49 50 51 52 53 55 57 58
67 70 71 72 73 74 74 73 72 71 73 74 73 70 69 68 68 67 66 62 64 67 68 65 61 59 56 52 50 50 51 50 48 45 47 47 48 50 52 54 56 57 60
Wind_Direction
267 260 260 259 257 258 257 257 258 260 264 265 268 270 274 280 283 289 292 290 290 291 288 293 293 294 291 293 295 293 292 293 297 295 297 299 300 298 292 290 290 287 291
266 262 259 260 257 256 256 258 259 259 261 265 268 269 270 276 279 284 289 289 290 293 292 292 291 293 293 293 295 294 290 293 300 295 296 295 298 299 296 294 292 292 292
278 262 259 259 258 256 256 257 259 262 265 266 267 269 271 271 275 279 282 285 288 289 289 291 290 291 292 291 294 295 294 291 296 299 294 291 289 293 297 298 301 300 302
278 275 259 260 258 258 257 258 260 263 266 268 267 267 267 267 272 275 279 282 287 288 289 289 290 290 291 289 290 293 292 292 291 292 295 292 290 287 288 293 299 300 300
281 270 267 261 258 259 256 258 259 263 267 270 270 270 271 272 274 276 278 281 284 287 288 290 289 288 289 289 290 290 291 292 291 291 289 288 287 288 284 283 288 294 298
287 276 270 264 261 258 257 258 259 263 267 269 272 271 271 272 273 274 277 280 283 286 289 289 289 290 290 289 290 290 291 291 291 290 289 287 285 286 286 285 287 289 292
294 285 271 264 263 259 257 257 259 261 265 268 271 273 273 275 275 276 278 280 282 285 289 290 290 290 290 291 291 290 290 290 289 289 288 289 288 288 288 288 288 289 294
300 290 287 267 267 260 258 259 259 262 266 268 270 273 275 275 277 278 280 281 283 285 288 290 291 291 291 291 291 290 290 290 289 288 288 288 289 290 290 289 290 288 292
308 298 290 282 276 265 257 260 263 264 266 269 272 274 275 275 276 279 281 282 284 285 288 289 290 291 291 291 291 290 289 290 290 289 289 289 289 290 291 291 291 290 288
314 312 298 291 285 273 260 261 264 267 272 274 273 275 277 278 279 280 280 282 284 285 287 288 288 289 290 291 290 290 290 290 290 290 289 289 290 291 291 291 291 290 288
313 317 316 304 292 279 268 267 268 269 271 276 278 279 279 279 280 280 281 282 284 286 287 288 289 289 290 291 290 290 289 289 289 289 289 289 290 289 290 290 290 289 289
315 320 320 320 308 289 279 275 274 274 275 278 278 278 279 281 283 283 283 283 284 285 286 287 288 289 290 290 290 290 291 290 289 289 289 289 289 289 290 290 289 289 290
309 310 313 313 309 303 292 285 281 279 279 278 277 278 279 280 280 281 282 284 284 285 286 287 287 289 290 291 291 292 291 291 291 290 290 289 290 289 291 290 290 290 291
307 307 306 305 302 298 293 291 287 285 282 279 279 279 280 280 280 280 281 281 282 283 284 286 287 289 290 291 292 292 292 292 292 292 291 291 290 291 290 290 291 292 292
301 302 303 302 300 296 292 289 288 287 285 282 280 279 280 281 280 278 278 279 280 281 282 284 285 287 289 290 291 292 293 293 292 292 292 292 292 291 291 291 291 291 291
302 302 300 298 297 296 293 290 288 286 286 284 282 282 281 280 280 279 277 276 278 279 281 282 284 286 288 290 291 292 291 291 291 291 293 293 293 292 292 292 292 291 291
308 305 302 299 295 293 291 289 289 288 286 284 283 282 282 280 279 279 277 276 275 276 277 279 282 284 288 291 292 293 294 293 293 292 292 292 293 294 294 294 294 294 294
310 304 302 299 296 292 289 290 289 288 287 285 284 283 282 280 280 279 277 276 275 274 275 277 280 282 287 290 292 294 295 295 294 294 294 294 294 295 294 294 294 295 295
311 311 310 304 297 293 288 285 285 287 287 285 284 284 283 281 279 278 278 277 275 274 274 276 278 280 284 289 292 294 295 294 295 296 297 296 296 296 296 296 295 296 296
313 314 311 308 306 296 291 285 284 283 283 284 284 284 283 282 280 278 278 278 276 274 275 276 277 280 283 288 291 294 294 294 295 298 299 299 298 299 299 298 296 296 298
313 312 313 313 309 304 299 291 285 280 284 282 282 282 282 280 279 280 278 277 275 274 273 274 276 279 283 286 289 292 293 294 296 297 298 300 299 299 300 299 300 299 301
317 317 316 315 311 306 303 297 292 290 285 283 282 281 281 280 279 277 278 275 273 272 271 272 275 278 281 285 288 290 292 294 296 298 300 300 300 300 301 301 301 301 302
318 320 319 318 316 311 306 301 298 296 293 288 282 281 280 280 278 275 275 274 271 270 269 270 272 275 278 281 285 288 291 293 295 298 299 300 302 302 304 304 305 307 305
319 319 319 318 316 314 309 304 300 298 294 289 288 285 281 279 277 275 273 272 270 269 269 268 269 272 275 277 282 285 289 292 296 298 299 300 303 305 306 307 309 309 309
319 319 318 315 314 315 312 309 304 300 295 291 289 286 284 282 279 277 272 272 272 269 268 267 267 267 270 274 279 283 287 291 294 298 300 301 304 305 306 308 310 312 313
319 317 316 316 315 315 314 312 309 305 298 293 289 287 285 283 282 280 277 274 275 271 268 267 266 267 268 271 275 280 285 287 290 293 296 299 302 304 307 308 310 313 313